This demonstration page uses our WeatherBlox Daily Observations layout. Learn more.

Left ArrowRight Arrow

38.83388, -104.82136

Hourly Observations for March 21, 2018

Temp ( °F °C ) Dew Point ( °F °C ) Humidity (%) Winds ( mph kmh ) Pressure ( in mb ) Visibility ( mi km ) Precip ( " mm )
12:58 am 00:58 Clear 36 2.3 8 -13.4 31 31 S 9 15 29.75 1007 10 16 0.00 0.00
1:58 am 01:58 Clear 35 1.5 8 -13.2 33 33 SSE 8 13 29.72 1006 10 16 0.00 0.00
2:58 am 02:58 Clear 34 1.1 10 -12.5 36 36 S 7 11 29.73 1007 10 16 0.00 0.00
3:58 am 03:58 Clear 34 0.9 9 -12.7 36 36 SSE 8 13 29.71 1006 10 16 0.00 0.00
4:58 am 04:58 Clear 37 2.7 8 -13.6 29 29 SSW 15 24 29.68 1005 10 16 0.00 0.00
5:58 am 05:58 Clear 31 -0.8 11 -11.4 45 45 WNW 5 7 29.75 1008 10 16 0.00 0.00
6:58 am 06:58 Clear 31 -0.6 10 -12.2 42 42 Calm 29.76 1008 10 16 0.00 0.00
7:58 am 07:58 Mostly Cloudy 34 1 10 -12.1 37 37 N 5 7 29.78 1008 10 16 0.00 0.00
8:58 am 08:58 Mostly Cloudy 36 2.3 9 -12.6 33 33 Calm 29.78 1008 10 16 0.00 0.00
9:58 am 09:58 Mostly Sunny 38 3.3 13 -10.8 35 35 ESE 3 6 29.74 1007 10 16 0.00 0.00
10:58 am 10:58 Mostly Cloudy 42 5.8 13 -10.8 29 29 SE 8 13 29.74 1007 10 16 0.00 0.00
11:58 am 11:58 Mostly Cloudy 44 6.7 13 -10.8 28 28 SSE 12 19 29.71 1006 10 16 0.00 0.00
12:58 pm 12:58 Mostly Cloudy 51 10.6 10 -12.2 19 19 SSE 14 22 29.64 1004 10 16 0.00 0.00
1:58 pm 13:58 Sunny 52 11.2 9 -12.7 17 17 SE 24 39 29.64 1004 10 16 0.00 0.00
2:58 pm 14:58 Partly Cloudy 52 11.3 9 -12.7 17 17 SSE 20 31 29.64 1004 10 16 0.00 0.00
3:58 pm 15:58 Sunny 52 11.1 10 -12.4 18 18 SSE 18 30 29.63 1003 10 16 0.00 0.00
4:58 pm 16:58 Sunny 52 11.1 10 -12.4 18 18 SE 20 31 29.62 1003 10 16 0.00 0.00
5:58 pm 17:58 Mostly Cloudy 51 10.8 10 -12.4 18 18 SSE 14 22 29.68 1005 10 16 0.00 0.00
6:58 pm 18:58 Mostly Cloudy 50 9.8 10 -12.5 20 20 SSE 12 19 29.71 1006 10 16 0.00 0.00
7:58 pm 19:58 Clear 49 9.4 9 -12.6 20 20 SSW 8 13 29.73 1007 10 16 0.00 0.00
8:58 pm 20:58 Clear 49 9.5 10 -12.3 20 20 SW 10 17 29.73 1007 10 16 0.00 0.00
9:58 pm 21:58 Partly Cloudy 48 9 12 -11.3 23 23 S 5 7 29.74 1007 10 16 0.00 0.00
10:58 pm 22:58 Mostly Clear 45 7.1 19 -7.5 35 35 NW 5 7 29.74 1007 10 16 0.00 0.00
11:58 pm 23:58 Clear 44 6.6 19 -7 38 38 Calm 29.72 1007 10 16 0.00 0.00

Powered by AerisWeather